Location: Great Falls Observatory Park
(38.9954°N, 77.3130°W)
Time: 06:58:51
(UTC-05:00)

ISS - Pass Details

Date: 31 October 2019
Orbit: 412 x 421 km, 51.6° (Epoch: 21 November)

Event Time Altitude Azimuth Distance (km) Brightness Sun altitude
Exits shadow 06:08:46 15° 347° (NNW) 1,260 -1.5 -17.3°
Drops below altitude 10° 06:10:32 10° 18° (NNE) 1,509 -0.8 -17.0°
Sets 06:13:22 0° 44° (NE) 2,374 0.7 -16.4°
